Location: ????????
(55.0559°N, 39.1270°E)
Time: 09:10:15
(UTC+00:00)

Meteor 2-21 - Pass Details

Date: 15 November 2025
Orbit: 933 x 966 km, 82.5° (Epoch: 14 December)

Event Time Altitude Azimuth Distance (km) Brightness Sun altitude
Exits shadow 01:50:58 66° 280° (W) 1,022 4.3 -26.1°
Maximum altitude 01:51:04 66° 285° (WNW) 1,021 4.3 -26.1°
Drops below altitude 10° 01:57:06 10° 8° (N) 2,658 6.9 -25.2°
Sets 01:59:38 0° 12° (NNE) 3,605 7.7 -24.8°
